Location: *
(39.6167°S, 171.5333°W)
Time: 05:01:03
(UTC+00:00)

H-2A R/B - Pass Details

Date: 13 May 2021
Orbit: 577 x 655 km, 98.5° (Epoch: 16 June)

Event Time Altitude Azimuth Distance (km) Brightness Sun altitude
Rises 17:30:17 0° 168° (SSE) 2,861 5.4 -10.3°
Reaches altitude 10° 17:32:26 10° 168° (SSE) 1,960 4.6 -9.9°
Maximum altitude 17:36:42 87° 256° (WSW) 619 2.0 -9.1°
Drops below altitude 10° 17:41:00 10° 344° (NNW) 1,977 4.7 -8.3°
Sets 17:43:12 0° 344° (NNW) 2,887 5.5 -7.9°
